{"data":{"norad_id":65379,"intl_designator":"2025-191A","name":"STARLINK-34985","alt_names":[],"object_type":"PAYLOAD","status":"ACTIVE","operator":null,"country":"US","launch_date":"2025-08-30","launch_site_code":"AFWTR","launch_vehicle":null,"mission":null,"orbit_class":"UNKNOWN","rcs_meters":null,"size_class":null,"mass_kg":null,"dimensions":null,"purposes":["comms"],"wikipedia_slug":null,"has_3d_model":false,"image_url":null,"decayed_at":null,"tle_current":{"epoch":"2026-09-20T22:16:08.317920Z","epoch_age_seconds":77976,"freshness":"FRESH","line1":"1 65379U 25191A   26263.92787405  .00001554  00000+0  50475-4 0  9998","line2":"2 65379  97.2848 129.9362 0002008  88.5039 271.6434 15.33439290 59702","mean_motion":15.3343929,"eccentricity":0.0002008,"inclination_deg":97.2848,"raan_deg":129.9362,"arg_perigee_deg":88.5039,"mean_anomaly_deg":271.6434,"bstar":5.0475e-5,"rev_number":5970,"period_min":93.906554331212,"perigee_km":464.1859490831,"apogee_km":466.93437786395,"semimajor_km":6843.6971634735,"source":"CELESTRAK","updated_at":"2026-09-21T09:00:35.596727Z"}}}